Regional Weather Roundup
Issued by NWS

Home | Current Version | Previous Version | Text Only | Print | Product List | Glossary Off
Versions: 1 2 3 4 5 6 7 8 9 10 11 12 13 14 15 16 17 18 19 20 21 22 23 24 25 26 27 28 29 30 31 32 33 34 35 36 37 38 39 40 41 42 43 44 45 46 47 48 49 50

000
ASUS43 KIND 020509
RWRIN

WEATHER ROUNDUP FOR INDIANA
NATIONAL WEATHER SERVICE INDIANAPOLIS IN
100 AM EDT WED SEP 02 2015

NOTE: "FAIR" INDICATES FEW OR NO CLOUDS BELOW 12,000 FEET WITH NO
SIGNIFICANT WEATHER AND/OR OBSTRUCTIONS TO VISIBILITY.

* - STATION DOES NOT REPORT WEATHER SUCH AS PRECIPITATION OR FOG.

+ - STATION NOT QUALITY CONTROLLED BY THE NATIONAL WEATHER SERVICE.
    USE DATA WITH CAUTION...ESPECIALLY DEWPOINT AND RELATIVE
    HUMIDITY OBSERVATIONS.

INZ001>003-010>013-019-020-020600-
NORTHWEST INDIANA

CITY           SKY/WX    TMP DP  RH WIND       PRES   REMARKS
GARY /AIRPORT/ CLEAR     77  68  73 SW3       30.06R
KNOX *+        CLEAR     70  68  94 S3        30.07S
LA PORTE +     CLEAR     73  73 100 S3        30.08S
MICHIGAN CITY+ CLEAR     73  68  83 S7        30.06S
MONTICELLO +   CLEAR     72  70  93 SW5       30.07F
RENSSELAER +   CLEAR     72  70  94 SW5       30.08S
VALPARAISO     CLEAR     73  69  87 SW6       30.07S

$$

LMZ046-743>745-020600-
SOUTHERN LAKE MICHIGAN

STATION/POSITION TIME  TEMP    WIND        PRES    WAVE
                       AIR SEA DIR/SP/G            HT
                 (UTC) (F)     (DEG/KT/KT) (MB)    (FT)
BURNS HARBOR     0400   76     190/ 13/ 16 1017.9S
MICHIGAN CITY    0400   77     170/ 13/ 15   N/A
5NW MICH CITY    0500   76 72  220/  8/ 12   N/A     1

$$

INZ004-005-014>016-021>024-020600-
NORTH CENTRAL INDIANA

CITY           SKY/WX    TMP DP  RH WIND       PRES   REMARKS
GOSHEN         CLEAR     71  67  87 S5        30.08S
LOGANSPORT +   CLEAR     68  63  83 SW5       30.09F
PERU/GRISSOM   CLEAR     69  66  90 SW3       30.09S
ROCHESTER +    CLEAR     75  68  78 SW3       30.09S
SOUTH BEND     CLEAR     72  68  87 S5        30.08S
WARSAW +       CLEAR     72  68  88 CALM      30.09S

$$

INZ006>009-017-018-025>027-020600-
NORTHEAST INDIANA

CITY           SKY/WX    TMP DP  RH WIND       PRES   REMARKS
ANGOLA *+      CLEAR     70  61  73 CALM      30.10R
AUBURN +       CLEAR     72  68  88 SW3       30.10S
FORT WAYNE     CLEAR     71  67  87 SW3       30.10S
HUNTINGTON +   CLEAR     70  64  82 CALM      30.09F

$$

INZ028-029-035-036-043>045-051>053-020600-
WEST CENTRAL INDIANA

CITY           SKY/WX    TMP DP  RH WIND       PRES   REMARKS
CRAWFORDSVL +  CLEAR     65  65 100 S3        30.11S
GREENCASTLE +  CLEAR     68  63  83 CALM      30.12S
LAFAYETTE      CLEAR     69  67  93 CALM      30.08F
TERRE HAUTE    CLEAR     68  65  90 CALM      30.10S

$$

INZ030>032-037>040-046>048-054>057-064-065-020600-
CENTRAL INDIANA

CITY           SKY/WX    TMP DP  RH WIND       PRES   REMARKS
FRANKFORT +    CLEAR    N/A N/A N/A CALM      30.12S
GREENWOOD *+   CLEAR     66  64  94 CALM      30.12S
INDIANAPOLIS   CLEAR     72  66  81 SW6       30.10S
-EAGLE CREEK   CLEAR     70  67  90 CALM      30.10S
KOKOMO *+      CLEAR     72  63  73 SW6       30.10S
MARION +       CLEAR     66  61  83 SW3       30.11S
MT COMFORT *+  CLEAR     66 N/A N/A S3        30.12S
SHELBYVILLE    CLEAR     69  65  86 SE3       30.11S
ZIONSVILLE +   CLEAR     67  64  90 CALM      30.12S

$$

INZ033-034-041-042-049-050-058-059-020600-
EAST CENTRAL INDIANA

CITY           SKY/WX    TMP DP  RH WIND       PRES   REMARKS
MUNCIE         CLEAR     71  66  84 SW6       30.11S

$$

INZ060-061-067>069-081>083-085>088-020600-
SOUTHWEST INDIANA

CITY           SKY/WX    TMP DP  RH WIND       PRES   REMARKS
EVANSVILLE     CLEAR     74  70  87 CALM      30.11S
HUNTINGBURG *+ CLEAR     70  66  88 CALM      30.11S
WASHINGTON +   CLEAR     69  65  88 CALM      30.11R

$$

INZ062-063-066-070>080-084-089>092-020600-
SOUTH CENTRAL AND SOUTHEAST INDIANA

CITY           SKY/WX    TMP DP  RH WIND       PRES   REMARKS
BLOOMINGTON    CLEAR     68  66  93 CALM      30.12S
MADISON *+     CLEAR     68  64  88 CALM      30.14S
SEYMOUR +      CLEAR     68  66  94 CALM      30.11S FOG

$$




USA.gov is the U.S. government's official web portal to all federal, state and local government web resources and services.